Starlink 35284

operational
NORAD ID: 65741 Int'l Des: 2025-216 Owner: SPXS Country: US Constellation: starlink
NOTLE

Starlink 35284について

説明を読み込み中...

リアルタイム位置

3D地球を読み込み中...

次回通過

高度履歴

Altitude vs Time

uPlot chart will show altitude changes over time

軌道要素

1 65741U 25216H 25340.89292123 .00031305 00000-0 10642-2 0 9996
2 65741 53.1603 44.0959 0002190 83.7934 276.3316 15.30211528 12335
Epoch: Dec 6, 2025 • Age: 20 hours

現在のステータス

高度 475.0 km
速度 7.63 km/s
衛星直下点 9.74°N, 118.3°W
打ち上げ日 Sep 25, 2025
運用期間 0.1 years
タイプ internet

技術仕様

分類 Payload
質量 575.00 kg
乾燥質量 530.00 kg
総質量 575.00 kg
長さ 0.30 m
直径 4.10 m
スパン 29.00 m
形状 Box + pan
製造者 SPXS
バスタイプ Starlink V2MO
フェーズステータス In Orbit
所有者/国 SPXS/US

大規模コンステレーション

Loading constellations...